Gaithersburg, MD

4:57 PM EST on December 12, 2017 (GMT -0500)
Montgomery County

Weather History for KGAI - November, 2012

Change the Weather History Date:

Wednesday, November 7, 2012

  Actual Average (KCGS) Record (KCGS)
Temperature  
Mean Temperature 38 °F -  
Max Temperature 42 °F 57 °F 76 °F (1965)
Min Temperature 35 °F 37 °F 22 °F (1954)
Degree Days  
Heating Degree Days 26    
Moisture  
Dew Point 26 °F    
Average Humidity 60    
Maximum Humidity 70    
Minimum Humidity 49    
Precipitation  
Precipitation 0.00 in - - ()
Sea Level Pressure  
Sea Level Pressure 29.95 in    
Wind  
Wind Speed 3 mph (NNE)    
Max Wind Speed 9 mph    
Max Gust Speed -    
Visibility 10 miles    
Events      
Averages and records for this station are not official NWS values.
T = Trace of Precipitation, MM = Missing Value Source: NWS Daily Summary

Daily Weather History Graph

Daily Weather History Graph

Search for Another Location

Airport or City:

Trip Planner

Search our weather history database for the weather conditions in past years. The results will help you decide how hot, cold, wet, or windy it might be!

Date:

Astronomy

Nov. 07, 2012 Rise Set
Actual Time 6:43 AM EST 5:00 PM EST
Civil Twilight 6:15 AM EST 5:28 PM EST
Nautical Twilight 5:43 AM EST 6:00 PM EST
Astronomical Twilight 5:12 AM EST 6:32 PM EST
Moon No Moon Rise 1:06 PM EST (11/7)
Length of Visible Light 11h 13m
Length of Day
10h 17m
Last Quarter, 43% of the Moon is Illuminated
Nov 7
Last Quarter
Nov 13
New
Nov 20
First Quarter
Nov 28
Full
Dec 6
Last Quarter

Hourly Weather History & Observations

Time (EST) Temp. Windchill Dew Point Humidity Pressure Visibility Wind Dir Wind Speed Gust Speed Precip Events Conditions
12:15 AM 37.4 °F - 24.8 °F 60% 30.04 in 10.0 mi Calm Calm - N/A   Overcast
12:35 AM 37.4 °F 34.9 °F 24.8 °F 60% 30.03 in 10.0 mi ENE 3.5 mph - N/A   Mostly Cloudy
12:55 AM 37.4 °F - 26.6 °F 65% 30.02 in 10.0 mi Calm Calm - N/A   Mostly Cloudy
1:15 AM 35.6 °F 31.7 °F 26.6 °F 70% 30.00 in 10.0 mi NE 4.6 mph - N/A   Partly Cloudy
1:35 AM 35.6 °F 32.8 °F 26.6 °F 70% 29.99 in 10.0 mi NNE 3.5 mph - N/A   Scattered Clouds
1:55 AM 35.6 °F 32.8 °F 26.6 °F 70% 29.99 in 10.0 mi NNE 3.5 mph - N/A   Mostly Cloudy
2:15 AM 35.6 °F 32.8 °F 26.6 °F 70% 29.98 in 10.0 mi NNE 3.5 mph - N/A   Mostly Cloudy
2:35 AM 35.6 °F 32.8 °F 24.8 °F 65% 29.98 in 10.0 mi NNE 3.5 mph - N/A   Scattered Clouds
2:55 AM 35.6 °F - 24.8 °F 65% 29.98 in 10.0 mi Calm Calm - N/A   Scattered Clouds
3:15 AM 35.6 °F 32.8 °F 24.8 °F 65% 29.97 in 10.0 mi NNE 3.5 mph - N/A   Clear
3:55 AM 35.6 °F 32.8 °F 24.8 °F 65% 29.97 in 10.0 mi NNE 3.5 mph - N/A   Mostly Cloudy
4:15 AM 35.6 °F 31.7 °F 24.8 °F 65% 29.96 in 10.0 mi NNE 4.6 mph - N/A   Mostly Cloudy
4:35 AM 35.6 °F 31.7 °F 24.8 °F 65% 29.97 in 10.0 mi NNE 4.6 mph - N/A   Clear
4:55 AM 35.6 °F 32.8 °F 24.8 °F 65% 29.96 in 10.0 mi NNE 3.5 mph - N/A   Clear
5:15 AM 35.6 °F 32.8 °F 24.8 °F 65% 29.97 in 10.0 mi NNE 3.5 mph - N/A   Clear
5:35 AM 35.6 °F - 26.6 °F 70% 29.96 in 10.0 mi Calm Calm - N/A   Clear
5:55 AM 35.6 °F 32.8 °F 24.8 °F 65% 29.95 in 10.0 mi North 3.5 mph - N/A   Clear
6:15 AM 35.6 °F - 24.8 °F 65% 29.96 in 10.0 mi Calm Calm - N/A   Scattered Clouds
7:15 AM 35.6 °F - 26.6 °F 70% 29.98 in 10.0 mi Calm Calm - N/A   Mostly Cloudy
7:35 AM 35.6 °F - 26.6 °F 70% 29.98 in 10.0 mi Calm Calm - N/A   Mostly Cloudy
7:55 AM 35.6 °F 32.8 °F 24.8 °F 65% 29.98 in 10.0 mi NNE 3.5 mph - N/A   Overcast
8:15 AM 35.6 °F - 24.8 °F 65% 29.97 in 10.0 mi Calm Calm - N/A   Overcast
8:35 AM 35.6 °F 32.8 °F 26.6 °F 70% 29.97 in 10.0 mi North 3.5 mph - N/A   Overcast
8:55 AM 37.4 °F 33.8 °F 24.8 °F 60% 29.96 in 10.0 mi North 4.6 mph - N/A   Overcast
9:15 AM 37.4 °F 33.8 °F 24.8 °F 60% 29.96 in 10.0 mi NNE 4.6 mph - N/A   Overcast
9:35 AM 37.4 °F 34.9 °F 26.6 °F 65% 29.95 in 10.0 mi North 3.5 mph - N/A   Overcast
9:55 AM 37.4 °F 34.9 °F 24.8 °F 60% 29.95 in 10.0 mi North 3.5 mph - N/A   Scattered Clouds
10:15 AM 37.4 °F 32.8 °F 26.6 °F 65% 29.95 in 10.0 mi NNE 5.8 mph - N/A   Partly Cloudy
10:35 AM 39.2 °F 34.2 °F 26.6 °F 61% 29.95 in 10.0 mi NNE 6.9 mph - N/A   Partly Cloudy
10:55 AM 39.2 °F 34.2 °F 26.6 °F 61% 29.94 in 10.0 mi NNE 6.9 mph - N/A   Mostly Cloudy
11:15 AM 41.0 °F 38.0 °F 26.6 °F 57% 29.93 in 10.0 mi North 4.6 mph - N/A   Partly Cloudy
11:35 AM 39.2 °F 34.2 °F 26.6 °F 61% 29.94 in 10.0 mi NNE 6.9 mph - N/A   Mostly Cloudy
11:55 AM 41.0 °F 38.0 °F 26.6 °F 57% 29.93 in 10.0 mi NNE 4.6 mph - N/A   Overcast
12:15 PM 41.0 °F 35.2 °F 26.6 °F 57% 29.93 in 10.0 mi NNE 9.2 mph - N/A   Overcast
12:35 PM 41.0 °F 38.0 °F 26.6 °F 57% 29.92 in 10.0 mi NNE 4.6 mph - N/A   Mostly Cloudy
12:55 PM 41.0 °F 38.0 °F 26.6 °F 57% 29.92 in 10.0 mi NE 4.6 mph - N/A   Mostly Cloudy
1:15 PM 41.0 °F 37.1 °F 26.6 °F 57% 29.92 in 10.0 mi NE 5.8 mph - N/A   Mostly Cloudy
1:35 PM 41.0 °F 38.0 °F 26.6 °F 57% 29.92 in 10.0 mi North 4.6 mph - N/A   Mostly Cloudy
1:55 PM 42.8 °F 40.1 °F 26.6 °F 53% 29.92 in 10.0 mi NNE 4.6 mph - N/A   Scattered Clouds
2:15 PM 42.8 °F 39.3 °F 28.4 °F 57% 29.92 in 10.0 mi NE 5.8 mph - N/A   Mostly Cloudy
2:35 PM 42.8 °F 39.3 °F 28.4 °F 57% 29.92 in 10.0 mi NNE 5.8 mph - N/A   Overcast
2:55 PM 42.8 °F 39.3 °F 28.4 °F 57% 29.92 in 10.0 mi NE 5.8 mph - N/A   Mostly Cloudy
3:15 PM 42.8 °F 39.3 °F 28.4 °F 57% 29.92 in 10.0 mi NNE 5.8 mph - N/A   Partly Cloudy
3:35 PM 42.8 °F 39.3 °F 28.4 °F 57% 29.92 in 10.0 mi NE 5.8 mph - N/A   Clear
3:55 PM 41.0 °F 39.0 °F 28.4 °F 61% 29.93 in 10.0 mi NE 3.5 mph - N/A   Clear
4:15 PM 41.0 °F 37.1 °F 26.6 °F 57% 29.92 in 10.0 mi North 5.8 mph - N/A   Clear
4:35 PM 39.2 °F 35.0 °F 28.4 °F 65% 29.92 in 10.0 mi North 5.8 mph - N/A   Partly Cloudy
4:55 PM 39.2 °F 35.0 °F 26.6 °F 61% 29.92 in 10.0 mi North 5.8 mph - N/A   Mostly Cloudy
5:15 PM 39.2 °F 35.0 °F 26.6 °F 61% 29.93 in 10.0 mi NNE 5.8 mph - N/A   Mostly Cloudy
5:35 PM 39.2 °F 37.0 °F 26.6 °F 61% 29.94 in 10.0 mi North 3.5 mph - N/A   Mostly Cloudy
5:55 PM 39.2 °F 35.9 °F 26.6 °F 61% 29.94 in 10.0 mi North 4.6 mph - N/A   Mostly Cloudy
6:15 PM 39.2 °F - 26.6 °F 61% 29.94 in 10.0 mi Calm Calm - N/A   Scattered Clouds
6:35 PM 39.2 °F - 26.6 °F 61% 29.95 in 10.0 mi Calm Calm - N/A   Clear
6:55 PM 39.2 °F - 26.6 °F 61% 29.94 in 10.0 mi Calm Calm - N/A   Clear
7:15 PM 39.2 °F 35.0 °F 26.6 °F 61% 29.94 in 10.0 mi North 5.8 mph - N/A   Clear
7:35 PM 39.2 °F 37.0 °F 24.8 °F 56% 29.94 in 10.0 mi North 3.5 mph - N/A   Clear
7:55 PM 39.2 °F 35.9 °F 24.8 °F 56% 29.94 in 10.0 mi North 4.6 mph - N/A   Clear
8:15 PM 39.2 °F 35.9 °F 26.6 °F 61% 29.94 in 10.0 mi North 4.6 mph - N/A   Clear
8:35 PM 39.2 °F 37.0 °F 24.8 °F 56% 29.94 in 10.0 mi North 3.5 mph - N/A   Partly Cloudy
8:55 PM 39.2 °F 34.2 °F 24.8 °F 56% 29.94 in 10.0 mi North 6.9 mph - N/A   Clear
9:15 PM 39.2 °F 35.9 °F 24.8 °F 56% 29.94 in 10.0 mi North 4.6 mph - N/A   Partly Cloudy
9:35 PM 39.2 °F 35.0 °F 23.0 °F 52% 29.94 in 10.0 mi NNE 5.8 mph - N/A   Partly Cloudy
9:55 PM 39.2 °F 35.0 °F 23.0 °F 52% 29.94 in 10.0 mi North 5.8 mph - N/A   Mostly Cloudy
10:15 PM 39.2 °F 35.9 °F 21.2 °F 49% 29.93 in 10.0 mi North 4.6 mph - N/A   Overcast
10:35 PM 39.2 °F 37.0 °F 21.2 °F 49% 29.93 in 10.0 mi NNE 3.5 mph - N/A   Mostly Cloudy
10:55 PM 39.2 °F 37.0 °F 21.2 °F 49% 29.93 in 10.0 mi North 3.5 mph - N/A   Mostly Cloudy
11:15 PM 39.2 °F 35.0 °F 21.2 °F 49% 29.93 in 10.0 mi North 5.8 mph - N/A   Partly Cloudy
11:35 PM 39.2 °F 35.0 °F 21.2 °F 49% 29.93 in 10.0 mi North 5.8 mph - N/A   Clear
11:55 PM 39.2 °F 37.0 °F 21.2 °F 49% 29.93 in 10.0 mi North 3.5 mph - N/A   Partly Cloudy